Regional Weather Roundup
Issued by NWS

Home | Current Version | Previous Version | Graphics & Text | Print | Product List | Glossary On
Versions: 1 2 3 4 5 6 7 8 9 10 11 12 13 14 15 16 17 18 19 20 21 22 23 24 25 26 27 28 29 30 31 32 33 34 35 36 37 38 39 40 41 42 43 44 45 46 47 48 49 50
000
ASUS43 KDTX 231301
RWRMI
MICHIGAN HOURLY REGIONAL WEATHER ROUNDUP
NATIONAL WEATHER SERVICE DETROIT/PONTIAC MI
900 AM EDT SUN APR 23 2017

NOTE: "FAIR" INDICATES FEW OR NO CLOUDS BELOW 12,000 FEET WITH NO
SIGNIFICANT WEATHER AND/OR OBSTRUCTION TO VISIBILITY.

MIZ047>049-052>055-059>063-066>070-074>076-081>083-231400-
SOUTHEAST LOWER MICHIGAN

CITY           SKY/WX    TMP DP  RH WIND       PRES   REMARKS
ADRIAN         SUNNY     47  41  80 CALM      30.15F
ALMA           SUNNY     48  33  54 SW6       30.13S
ANN ARBOR      SUNNY     47  39  74 SW3       30.14F
BAD AXE        SUNNY     48  35  60 SW6       30.10S
CARO           SUNNY     48  35  60 SW7       30.11S
DETROIT CITY   SUNNY     49  33  54 S3        30.14F
DETROIT        SUNNY     49  38  65 S3        30.15F
FLINT          SUNNY     50  36  58 SW3       30.14R
GROSSE ILE     SUNNY     48  34  59 CALM      30.14F
HILLSDALE      SUNNY     48  36  61 CALM      30.13F
HOWELL         SUNNY     49  35  58 SW5       30.13S

CITY           SKY/WX    TMP DP  RH WIND       PRES   REMARKS
JACKSON        SUNNY     49  39  68 W3        30.14F
LAMBERTVILLE   SUNNY     46  40  81 CALM      30.15F
LANSING        SUNNY     50  34  54 SW3       30.14S
LAPEER         FAIR      50  36  59 CALM      30.13S
MASON          SUNNY     49  37  64 CALM      30.14S
MONROE         SUNNY     47  37  67 CALM      30.14F
MT. CLEMENS    SUNNY     49  35  57 S3        30.12F
PONTIAC        MOSUNNY   49  37  63 W7        30.12F
PORT HOPE        N/A     51  33  50 SW9G16    30.06S
PORT HURON     SUNNY     48  30  49 SW3       30.13F
TRI CITIES     SUNNY     48  36  63 SW10      30.12R
MIDLAND        FAIR      49  32  51 SW5       30.10F
TROY           SUNNY     49  33  52 SW6       30.15F
SAGINAW HB     SUNNY     50  34  53 SW8       30.11S
$$
MIZ043>046-050>051-056>058-064>065-071>073-077>080-231400-
SOUTHWEST LOWER MICHIGAN

CITY           SKY/WX    TMP DP  RH WIND       PRES   REMARKS
BATTLE CREEK   SUNNY     50  36  58 SW3       30.14S
BENTON HARBOR  SUNNY     47  34  60 CALM      30.15R
BIG RAPIDS     SUNNY     44  35  70 CALM      30.10F
COLDWATER      SUNNY     49  40  72 CALM      30.14F
FREMONT        FAIR      45  33  63 SW5       30.12F
HOLLAND        SUNNY     49  38  65 W6        30.15R
GRAND RAPIDS   MOSUNNY   47  35  63 W5        30.14R
IONIA          FAIR      49  35  60 SW5       30.13S
KALAMAZOO      SUNNY     50  41  71 CALM      30.14S
LUDINGTON      SUNNY     50  33  51 SW6       30.09S
MARSHALL       SUNNY     48  37  64 CALM      30.14S
MOUNT PLEASANT SUNNY     50  28  41 W8        30.10S
MUSKEGON       SUNNY     50  32  50 SW8       30.14S
SOUTH HAVEN    SUNNY     48  38  68 NW3       30.15R
$$
MIZ016>042-231400-
NORTHERN LOWER MICHIGAN

CITY           SKY/WX    TMP DP  RH WIND       PRES   REMARKS
ALPENA         MOSUNNY   53  30  41 W9        30.05R
BEAVER ISLAND  CLOUDY    41  35  79 N10G17    30.12R
BELLAIRE       MOSUNNY   47  31  53 NW7       30.09R
CADILLAC       SUNNY     49  27  41 SW12      30.07F
CHARLEVOIX     MOSUNNY   42  37  81 NW8       30.14R
FRANKFORT      SUNNY     48  34  59 W3        30.09S
GAYLORD        SUNNY     50  26  39 W9        30.06R
GRAYLING       SUNNY     48  28  45 W7        30.08R
HARBOR SPRINGS MOSUNNY   45  37  72 N12       30.09R
HOUGHTON LAKE  SUNNY     50  31  48 W6        30.08S
MANISTEE       SUNNY     45  33  63 NE5       30.08
OSCODA         SUNNY     49  31  50 SW9       30.05F
PELLSTON       PTSUNNY   44  35  70 N13       30.10R
ROGERS CITY    CLOUDY    48  31  52 NW13      30.07R
TRAVERSE CITY  MOSUNNY   51  28  41 W8        30.08R
$$
MIZ007>008-015-231400-
EASTERN UPPER MICHIGAN

CITY           SKY/WX    TMP DP  RH WIND       PRES   REMARKS
KINROSS        CLOUDY    40  35  83 N17G24    30.07R WCI  31
MACKINAC ISLAN CLOUDY    41  36  81 NW10      30.08R
NEWBERRY       MIX PCPN  35  33  94 NW9       30.10S WCI  27
S. S. MARIE    CLOUDY    42  36  79 NW12G21   30.06R
MUNISING         N/A     35  33  92 N15       30.15R WCI  25
$$
MIZ004>006-011>014-085-231400-
CENTRAL UPPER MICHIGAN

CITY           SKY/WX    TMP DP  RH WIND       PRES   REMARKS
MANISTIQUE     CLOUDY    36  33  88 N15       30.12R WCI  27
ESCANABA       CLOUDY    39  32  76 N9        30.14R WCI  33
MENOMINEE      CLOUDY    44  38  79 NE14      30.12R
SAWYER-GWINN   LGT SNOW  32  28  86 N17       30.14S WCI  21
$$
MIZ001>003-009>011-084-231400-
WESTERN UPPER MICHIGAN

CITY           SKY/WX    TMP DP  RH WIND       PRES   REMARKS
IRON MOUNTAIN  CLOUDY    38  30  73 N13       30.12R WCI  30
HOUGHTON       LGT SNOW  30  25  81 NE9       30.19R VSB 1   WCI  22
COPPER HARBOR    N/A     33  26  75 NE18G26   30.20R WCI  22
IRONWOOD       FLURRIES  34  33  96 NE7       30.19R WCI  28
$$

ABBREVIATIONS USED IN REMARKS
   TC - TEMPERATURE IN CELSIUS
  WCI - WIND CHILL INDEX
   HX - HEAT INDEX
  VSB - VISIBILITY




USA.gov is the U.S. government's official web portal to all federal, state and local government web resources and services.